CW8095 Weather Reports


Display with metric or nautical units.
time (UTC)temp
F
wind
direction
speed
MPH
gust
MPH
rain 1hr
in
rain 24hr
in
rain mn
in
humidity
%
barometer
mb
20240530053021 77 188 0.0 0.0 0.00 0.03 0.00 77 1015.1
20240530050015 78 189 0.0 0.0 0.00 0.03 0.03 76 1015.1
20240530043022 78 189 0.0 0.0 0.00 0.03 0.03 75 1015.2
20240530040021 79 188 0.0 0.0 0.01 0.04 0.03 74 1015.4
20240530033016 80 189 0.0 0.0 0.01 0.04 0.03 73 1015.1
20240530030042 80 188 0.0 0.0 0.00 0.03 0.02 72 1014.6
20240530023016 81 188 0.0 0.0 0.00 0.03 0.02 69 1014.3
20240530020021 82 188 0.0 0.0 0.00 0.03 0.02 67 1014.2
20240530013042 83 188 0.0 0.0 0.00 0.04 0.02 63 1014.2
20240530010042 85 188 0.0 0.0 0.00 0.04 0.02 60 1014.1
20240530003021 86 188 0.0 0.0 0.00 0.04 0.02 56 1014.3
20240530000021 88 189 0.0 0.0 0.00 0.04 0.02 52 1014.6
20240529233021 87 188 0.0 0.0 0.00 0.05 0.02 54 1014.8
20240529230041 88 188 0.0 0.0 0.00 0.05 0.02 54 1015.0
20240529223019 88 188 0.0 0.0 0.00 0.06 0.02 54 1015.2
20240529220021 87 188 0.0 0.0 0.00 0.07 0.02 56 1015.3
20240529213020 86 188 0.0 0.0 0.00 0.08 0.02 57 1015.4
20240529210015 88 188 0.0 0.0 0.00 0.09 0.02 55 1015.6
20240529203020 87 188 0.0 0.0 0.00 0.11 0.02 57 1015.8
20240529200036 87 188 0.0 0.0 0.00 0.12 0.02 60 1016.1
20240529193020 86 188 0.0 0.0 0.00 0.14 0.02 60 1016.4
20240529190055 85 188 0.0 0.0 0.00 0.15 0.02 59 1016.6
20240529183020 85 187 0.0 0.0 0.00 0.16 0.02 63 1016.8
20240529180021 83 187 0.0 0.0 0.00 0.18 0.02 66 1017.1
20240529173104 83 187 0.0 0.0 0.00 0.20 0.02 67 1017.3
20240529170017 82 190 0.0 0.0 0.00 0.21 0.02 68 1017.6
20240529163042 81 190 0.0 0.0 0.00 0.22 0.02 69 1018.0
20240529160042 80 190 0.0 0.0 0.00 0.24 0.02 73 1018.5
20240529153022 78 193 0.0 0.0 0.01 0.26 0.02 76 1018.4
20240529150022 76 193 0.0 0.0 0.01 0.28 0.02 78 1018.4
20240529143021 74 193 0.0 0.0 0.00 0.29 0.01 79 1018.2
20240529140021 72 188 0.0 0.0 0.00 0.33 0.01 78 1018.5
20240529133022 71 188 0.0 0.0 0.00 0.35 0.01 75 1018.9
20240529130019 70 188 0.0 0.0 0.00 0.35 0.01 74 1018.8
20240529123022 70 188 0.0 0.0 0.00 0.36 0.01 75 1018.7
20240529120021 70 188 0.0 0.0 0.00 0.36 0.01 76 1018.6
20240529113018 70 110 0.0 0.0 0.00 0.36 0.01 76 1018.5
20240529110122 70 203 0.0 6.0 0.00 0.37 0.01 77 1017.1
20240529103036 71 203 0.0 7.0 0.00 0.37 0.01 79 1015.1
20240529100101 70 203 0.0 3.0 0.00 0.37 0.01 73 1013.7
20240529093016 71 207 0.0 0.0 0.01 0.37 0.01 73 1016.5
20240529090021 71 207 0.0 0.0 0.01 0.37 0.01 73 1016.1
20240529083021 71 207 0.0 0.0 0.00 0.36 0.00 73 1016.0
20240529080021 72 207 0.0 0.0 0.00 0.37 0.00 74 1017.5
20240529073021 72 207 0.0 0.0 0.00 0.37 0.00 78 1018.3
20240529070021 73 207 0.0 0.0 0.00 0.37 0.00 79 1019.3
20240529063120 73 207 0.0 0.0 0.00 0.37 0.00 79 1019.9
20240529060020 73 207 0.0 0.0 0.00 0.37 0.00 78 1019.6